Weather History for KAAT - March, 2013

Change the Weather History Date:

Sunday, March 3, 2013

  Actual Average Record
Temperature  
Mean Temperature 40 °F 37 °F  
Max Temperature 50 °F 50 °F 68 °F (1934)
Min Temperature 29 °F 24 °F -14 °F (1917)
Degree Days  
Heating Degree Days 25 28  
Month to date heating degree days 70 84  
Since 1 July heating degree days 4656 4951  
Cooling Degree Days 0 0  
Month to date cooling degree days 0 0  
Year to date cooling degree days 0 0  
Moisture  
Dew Point 33 °F    
Average Humidity 71    
Maximum Humidity 100    
Minimum Humidity 42    
Precipitation  
Precipitation 0.04 in 0.05 in 0.57 in (1991)
Month to date precipitation 0.04 0.15  
Year to date precipitation 0.77 3.25  
Sea Level Pressure  
Sea Level Pressure 30.07 in    
Wind  
Wind Speed 2 mph (WSW)    
Max Wind Speed 15 mph    
Max Gust Speed 21 mph    
Visibility 10 miles    
Events Rain    
T = Trace of Precipitation, MM = Missing Value Source: NWS Daily Summary

Daily Weather History Graph

Daily Weather History Graph

Search for Another Location

Airport or City:

Trip Planner

Search our weather history database for the weather conditions in past years. The results will help you decide how hot, cold, wet, or windy it might be!

Date:

Astronomy

Mar. 03, 2013 Rise Set
Actual Time 6:33 AM PST 5:55 PM PST
Civil Twilight 6:05 AM PST 6:23 PM PST
Nautical Twilight 5:33 AM PST 6:55 PM PST
Astronomical Twilight 5:01 AM PST 7:27 PM PST
Moon No Moon Rise 9:47 AM PST (3/3)
Length of Visible Light 12h 17m
Length of Day
11h 22m
Waning Gibbous, 62% of the Moon is Illuminated
Mar 3
Waning Gibbous
Mar 4
Last Quarter
Mar 11
New
Mar 19
First Quarter
Mar 27
Full

Hourly Weather History & Observations

Time (PST) Temp. Windchill Dew Point Humidity Pressure Visibility Wind Dir Wind Speed Gust Speed Precip Events Conditions
12:55 AM 42.1 °F - 30.9 °F 65% 30.08 in 10.0 mi Calm Calm - N/A   Overcast
1:55 AM 39.0 °F - 34.0 °F 82% 30.08 in 10.0 mi Calm Calm - 0.00 in   Overcast
2:55 AM 39.0 °F 35.7 °F 34.0 °F 82% 30.06 in 10.0 mi NE 4.6 mph - N/A   Overcast
3:34 AM 37.4 °F - 33.8 °F 87% 30.09 in 10.0 mi Calm Calm - N/A   Overcast
3:55 AM 37.9 °F - 35.1 °F 89% 30.06 in 10.0 mi Calm Calm - 0.00 in Rain Light Rain
4:55 AM 37.0 °F - 36.0 °F 96% 30.07 in 10.0 mi Calm Calm - 0.02 in   Overcast
5:55 AM 37.0 °F - 36.0 °F 96% 30.08 in 10.0 mi Calm Calm - 0.01 in Rain Light Rain
6:55 AM 37.0 °F - 36.0 °F 96% 30.08 in 10.0 mi Calm Calm - 0.00 in   Overcast
7:26 AM 37.4 °F 34.9 °F 35.6 °F 93% 30.09 in 7.0 mi West 3.5 mph - 0.00 in Rain Light Rain
7:45 AM 37.4 °F 34.9 °F 37.4 °F 100% 30.10 in 10.0 mi WSW 3.5 mph - 0.01 in   Overcast
7:55 AM 37.0 °F 34.5 °F 37.0 °F 100% 30.09 in 10.0 mi West 3.5 mph - 0.01 in   Overcast
8:02 AM 37.4 °F 34.9 °F 37.4 °F 100% 30.10 in 10.0 mi West 3.5 mph - N/A   Overcast
8:25 AM 37.4 °F 34.9 °F 37.4 °F 100% 30.10 in 10.0 mi West 3.5 mph - N/A   Overcast
8:55 AM 39.0 °F 35.7 °F 37.0 °F 93% 30.10 in 10.0 mi SW 4.6 mph - N/A   Overcast
9:04 AM 39.2 °F 37.0 °F 37.4 °F 93% 30.10 in 10.0 mi WSW 3.5 mph - N/A   Overcast
9:55 AM 39.9 °F - 36.0 °F 86% 30.08 in 10.0 mi Calm Calm - N/A   Overcast
10:55 AM 42.1 °F - 36.0 °F 79% 30.08 in 10.0 mi Calm Calm - N/A   Overcast
11:05 AM 42.8 °F - 35.6 °F 76% 30.09 in 10.0 mi Calm Calm - N/A   Overcast
11:33 AM 41.0 °F - 35.6 °F 81% 30.08 in 10.0 mi Calm Calm - N/A   Overcast
11:42 AM 42.8 °F - 35.6 °F 76% 30.08 in 10.0 mi Calm Calm - N/A   Overcast
11:55 AM 42.1 °F - 36.0 °F 79% 30.08 in 10.0 mi Calm Calm - N/A   Overcast
12:55 PM 45.0 °F 41.8 °F 35.1 °F 68% 30.04 in 10.0 mi SSE 5.8 mph - N/A   Overcast
1:10 PM 44.6 °F 40.2 °F 35.6 °F 71% 30.05 in 10.0 mi SSE 8.1 mph - N/A   Overcast
1:36 PM 44.6 °F 43.1 °F 33.8 °F 66% 30.04 in 10.0 mi SW 3.5 mph - N/A   Overcast
1:55 PM 48.0 °F - 30.9 °F 52% 30.03 in 10.0 mi WNW 6.9 mph - N/A   Overcast
2:55 PM 48.9 °F - 26.1 °F 41% 30.03 in 10.0 mi WNW 10.4 mph 19.6 mph N/A   Clear
3:55 PM 48.9 °F - 27.0 °F 43% 30.01 in 10.0 mi WNW 6.9 mph - N/A   Clear
4:55 PM 48.0 °F - 28.0 °F 46% 30.02 in 10.0 mi NW 5.8 mph - N/A   Clear
5:55 PM 42.1 °F - 28.0 °F 58% 30.03 in 10.0 mi Calm Calm - N/A   Clear
7:55 PM 33.1 °F - 27.0 °F 78% 30.09 in 10.0 mi Calm Calm - N/A   Overcast
8:55 PM 32.0 °F 28.7 °F 28.0 °F 85% 30.08 in 5.0 mi East 3.5 mph - N/A   Partly Cloudy
9:55 PM 30.9 °F - 28.0 °F 89% 30.09 in 10.0 mi Calm Calm - N/A   Overcast
10:55 PM 32.0 °F - 27.0 °F 82% 30.09 in 8.0 mi Calm Calm - N/A   Overcast
11:55 PM 35.1 °F - 23.0 °F 61% 30.09 in 10.0 mi Calm Calm - N/A   Overcast